Powrót do katalogu

COSMOS 252 DEB

AktywnyUNKNOWN
NORAD 3788·DEBRIS·🇷🇺 Russia

Wystrzelony Nov 1, 1968 z Baikonur Cosmodrome

Loading…

Następne Przeloty (najbliższe 24 godziny)

TLE

ŚwieżeSource: Space-Track

Epoka: Sep 14, 2026, 12:52 UTC

1 03788U 68097BA  26257.53654203 -.00000040  00000-0  21237-3 0  9999
2 03788  61.8729 290.1156 0581349  40.8014  33.1157 11.88459683511046

Śledź COSMOS 252 DEB w czasie rzeczywistym z AllMySat

Download on the App Store